User: anonymous   Login
Location: Unspecified
(0.0000°N, 0.0000°E)
Time: 03:21:32
(UTC+00:00)
Language:

DIAMOND BLUE - Orbit

View from above orbital plane
View from above orbital plane
View from above satellite
View from above satellite

Ground track
Ground track

The orbit data is extracted from the following two-line orbital elements,

1 42786U 17036X   18172.61250397 +.00000998 +00000-0 +47384-4 0  9992
2 42786 097.4008 232.2576 0013749 065.9797 294.2877 15.21471734055252
Epoch (UTC): 21 June 2018 14:42:00
Eccentricity: 0.0013749
inclination: 97.4008°
perigee height: 492 km
apogee height: 511 km
right ascension of ascending node: 232.2576°
argument of perigee: 65.9797°
revolutions per day: 15.21471734
mean anomaly at epoch: 294.2877°
orbit number at epoch: 5525

The dashed part of the orbit path shows where the satellite is in the earth's shadow,  

DLR